Skip Page Navigation
NASA JPL Caltech
NASA Logo - Jet Propulsion Laboratory + View the NASA Portal
+ Near-Earth Object (NEO) Program
Search JPL
JPL Home Earth Solar System Stars & Galaxies Technology
JPL Solar System Dynamics
BODIES ORBITS EPHEMERIDES TOOLS PHYSICAL DATA DISCOVERY FAQ SITE MAP
JPL Small-Body Database Browser
Search: [ help ]  
118214 Agnesediboemia (1996 AG1)
Classification: Main-belt Asteroid          SPK-ID: 2118214
Ephemeris | Orbit Diagram | Orbital Elements | Physical Parameters | Discovery Circumstances | Close-Approach Data ]

[ show orbit diagram ]
Orbital Elements at Epoch 2456800.5 (2014-May-23.0) TDB
Reference: JPL 2 (heliocentric ecliptic J2000)
 Element Value Uncertainty (1-sigma)   Units 
e .1962708456205614 1.0065e-07  
a 3.115497711911859 5.7518e-08 AU
q 2.504016341465994 3.0557e-07 AU
i 6.544242644592437 9.4598e-06 deg
node 85.09343304331773 8.309e-05 deg
peri 296.680038898444 8.8825e-05 deg
M 195.9120597893417 3.0163e-05 deg
tp 2457716.011374474593
(2016-Nov-23.51137447)
0.00018354 JED
period 2008.582071221865
5.50
5.5623e-05
1.523e-07
d
yr
n .1792309137664482 4.9634e-09 deg/d
Q 3.726979082357723 6.8807e-08 AU
  Orbit Determination Parameters
   # obs. used (total)      275  
   data-arc span      6660 days (18.23 yr)  
   first obs. used      1996-01-12  
   last obs. used      2014-04-07  
   planetary ephem.      DE431  
   SB-pert. ephem.      SB431-BIG16  
   condition code      0  
   fit RMS      .57904  
   data source      ORB  
   producer      Otto Matic  
   solution date      2014-Apr-17 15:56:40  

Additional Information
 Earth MOID = 1.5146 AU 
 T_jup = 3.178 
[ show covariance matrix ]

Ephemeris | Orbit Diagram | Orbital Elements | Physical Parameters | Discovery Circumstances | Close-Approach Data ]

Physical Parameter Table
Parameter Symbol Value Units Sigma Reference Notes
absolute magnitude H 14.8 mag n/a MPO257550  

118214 Agnesediboemia           Discovered 1996 Jan. 12 by J. Ticha and M. Tichy at Klet.
Agnese di Boemia (1211-1282), princess Anezka of the Premyslid family, devoted her life to charity and religious works. She was the founder of a hospital and two convents that were among the first Gothic buildings in Prague. She was canonized in 1989.
NOTE: some special characters may not display properly (any characters within {} are an attempt to place the proper accent above a character)
Reference: 20120703/MPCPages.arcLast Updated: 2012-07-09

[ show close-approach data ]
Alternate Designations
 1996 AG1 = 2000 RH54 
Ephemeris | Orbit Diagram | Orbital Elements | Physical Parameters | Discovery Circumstances | Close-Approach Data ]
ABOUT SSD CREDITS/AWARDS PRIVACY/COPYRIGHT GLOSSARY LINKS
FirstGov 2014-Apr-23 22:09 UT
(server date/time)  
NASA Home Page
Site Manager:   Donald K. Yeomans
Webmaster  Alan B. Chamberlin